Weather History for KBVX - October, 2012

Change the Weather History Date:

Saturday, October 13, 2012

  Actual Average (KJBR) Record (KJBR)
Temperature  
Mean Temperature 68 °F 62 °F  
Max Temperature 80 °F 74 °F 91 °F (1928)
Min Temperature 57 °F 51 °F 25 °F (1917)
Degree Days  
Heating Degree Days 0 5  
Month to date heating degree days 45  
Since 1 July heating degree days 63  
Cooling Degree Days 4 2  
Month to date cooling degree days 34  
Year to date cooling degree days 1805  
Growing Degree Days 18 (Base 50)    
Moisture  
Dew Point 61 °F    
Average Humidity 83    
Maximum Humidity 100    
Minimum Humidity 61    
Precipitation  
Precipitation 0.00 in 0.12 in 2.38 in (1943)
Month to date precipitation 1.75  
Year to date precipitation 35.92  
Snow  
Snow 0.00 in 0.00 in T in (1955)
Month to date snowfall 0.0  
Since 1 July snowfall 0.0  
Since 1 September snowfall 0.0  
Snow Depth -    
Sea Level Pressure  
Sea Level Pressure 30.09 in    
Wind  
Wind Speed 5 mph (SSE)    
Max Wind Speed 16 mph    
Max Gust Speed 22 mph    
Visibility 5 miles    
Events      
T = Trace of Precipitation, MM = Missing Value Source: NWS Daily Summary

Daily Weather History Graph

Daily Weather History Graph

Search for Another Location

Airport or City:

Trip Planner

Search our weather history database for the weather conditions in past years. The results will help you decide how hot, cold, wet, or windy it might be!

Date:

Astronomy

Oct. 13, 2012 Rise Set
Actual Time 7:11 AM CDT 6:32 PM CDT
Civil Twilight 6:46 AM CDT 6:58 PM CDT
Nautical Twilight 6:16 AM CDT 7:28 PM CDT
Astronomical Twilight 5:46 AM CDT 7:57 PM CDT
Moon 5:05 AM CDT (10/13) 5:15 PM CDT (10/13)
Length of Visible Light 12h 12m
Length of Day
11h 21m
Waning Crescent, 5% of the Moon is Illuminated
Oct 13
Waning Crescent
Oct 15
New
Oct 21
First Quarter
Oct 29
Full
Nov 6
Last Quarter

Hourly Weather History & Observations

Time (CDT) Temp. Heat Index Dew Point Humidity Pressure Visibility Wind Dir Wind Speed Gust Speed Precip Events Conditions
12:15 AM 57.2 °F - 57.2 °F 100% 30.22 in 0.2 mi SE 3.5 mph - N/A   Overcast
12:55 AM 57.2 °F - 57.2 °F 100% 30.21 in 0.2 mi East 5.8 mph - N/A   Overcast
1:15 AM 57.2 °F - 57.2 °F 100% 30.21 in 0.2 mi East 4.6 mph - N/A   Overcast
1:35 AM 57.2 °F - 57.2 °F 100% 30.20 in 0.2 mi Calm Calm - N/A   Overcast
1:56 AM 57.2 °F - 57.2 °F 100% 30.20 in 0.2 mi East 3.5 mph - N/A   Overcast
2:15 AM 57.2 °F - 57.2 °F 100% 30.19 in 0.2 mi ESE 3.5 mph - N/A   Overcast
2:35 AM 59.0 °F - 57.2 °F 94% 30.19 in 0.2 mi ESE 4.6 mph - N/A   Overcast
2:55 AM 59.0 °F - 57.2 °F 94% 30.18 in 0.2 mi East 4.6 mph - N/A   Overcast
3:16 AM 59.0 °F - 57.2 °F 94% 30.17 in 0.2 mi ESE 3.5 mph - N/A   Overcast
3:35 AM 59.0 °F - 57.2 °F 94% 30.16 in 0.2 mi SE 3.5 mph - N/A   Overcast
3:55 AM 59.0 °F - 57.2 °F 94% 30.15 in 0.2 mi ESE 3.5 mph - N/A   Overcast
4:16 AM 59.0 °F - 57.2 °F 94% 30.16 in 0.2 mi Calm Calm - N/A   Overcast
4:35 AM 59.0 °F - 57.2 °F 94% 30.16 in 0.2 mi ESE 3.5 mph - N/A   Overcast
4:55 AM 59.0 °F - 57.2 °F 94% 30.16 in 0.2 mi Calm Calm - N/A   Overcast
5:55 AM 59.0 °F - 57.2 °F 94% 30.17 in 0.2 mi Calm Calm - N/A   Overcast
6:16 AM 59.0 °F - 57.2 °F 94% 30.17 in 0.2 mi Calm Calm - N/A   Overcast
6:35 AM 59.0 °F - 57.2 °F 94% 30.17 in 0.2 mi Calm Calm - N/A   Overcast
7:16 AM 59.0 °F - 57.2 °F 94% 30.16 in 0.2 mi Calm Calm - N/A   Overcast
7:35 AM 59.0 °F - 57.2 °F 94% 30.17 in 0.2 mi Calm Calm - N/A   Overcast
7:55 AM 60.8 °F - 59.0 °F 94% 30.17 in 0.2 mi Calm Calm - N/A   Overcast
8:15 AM 60.8 °F - 59.0 °F 94% 30.16 in 0.2 mi Calm Calm - N/A   Overcast
9:35 AM 62.6 °F - 60.8 °F 94% 30.16 in 1.8 mi SSE 4.6 mph - N/A   Overcast
9:55 AM 62.6 °F - 62.6 °F 100% 30.16 in 2.5 mi SSE 4.6 mph - N/A   Overcast
10:35 AM 64.4 °F - 62.6 °F 94% 30.14 in 8.0 mi SSW 4.6 mph - N/A   Overcast
11:15 AM 68.0 °F - 62.6 °F 83% 30.12 in 10.0 mi South 4.6 mph - N/A   Mostly Cloudy
11:35 AM 69.8 °F - 62.6 °F 78% 30.12 in 10.0 mi South 9.2 mph - N/A   Mostly Cloudy
12:35 PM 71.6 °F - 64.4 °F 78% 30.10 in 10.0 mi South 16.1 mph 20.7 mph N/A   Overcast
1:15 PM 73.4 °F - 64.4 °F 73% 30.07 in 10.0 mi SSW 13.8 mph 19.6 mph N/A   Partly Cloudy
1:35 PM 75.2 °F - 64.4 °F 69% 30.07 in 10.0 mi SSW 12.7 mph 21.9 mph N/A   Partly Cloudy
2:15 PM 77.0 °F - 64.4 °F 65% 30.04 in 10.0 mi South 11.5 mph 17.3 mph N/A   Partly Cloudy
2:35 PM 78.8 °F - 66.2 °F 65% 30.03 in 10.0 mi SSW 11.5 mph 18.4 mph N/A   Clear
3:35 PM 78.8 °F - 66.2 °F 65% 30.00 in 10.0 mi South 9.2 mph - N/A   Scattered Clouds
3:55 PM 80.6 °F 82.7 °F 66.2 °F 61% 30.00 in 10.0 mi South 10.4 mph 16.1 mph N/A   Mostly Cloudy
4:16 PM 78.8 °F - 64.4 °F 61% 30.00 in 10.0 mi South 9.2 mph 18.4 mph N/A   Mostly Cloudy
4:35 PM 78.8 °F - 64.4 °F 61% 29.99 in 10.0 mi South 6.9 mph - N/A   Scattered Clouds
4:55 PM 78.8 °F - 64.4 °F 61% 29.98 in 10.0 mi South 10.4 mph 17.3 mph N/A   Partly Cloudy
5:35 PM 77.0 °F - 66.2 °F 69% 29.99 in 10.0 mi South 5.8 mph - N/A   Clear
5:55 PM 75.2 °F - 64.4 °F 69% 29.98 in 10.0 mi South 6.9 mph - N/A   Clear
6:35 PM 75.2 °F - 64.4 °F 69% 29.97 in 10.0 mi SSE 5.8 mph - N/A   Mostly Cloudy
6:55 PM 75.2 °F - 62.6 °F 65% 29.97 in 10.0 mi South 4.6 mph - N/A   Scattered Clouds
7:35 PM 75.2 °F - 62.6 °F 65% 29.96 in 10.0 mi SSE 8.1 mph - N/A   Overcast
9:15 PM 73.4 °F - 62.6 °F 69% 29.95 in 10.0 mi SSE 9.2 mph - N/A   Clear
9:35 PM 73.4 °F - 62.6 °F 69% 29.94 in 10.0 mi SSE 11.5 mph 16.1 mph N/A   Clear
9:55 PM 73.4 °F - 62.6 °F 69% 29.93 in 10.0 mi South 13.8 mph 20.7 mph N/A   Partly Cloudy
10:15 PM 73.4 °F - 62.6 °F 69% 29.93 in 10.0 mi South 13.8 mph 21.9 mph N/A   Mostly Cloudy
11:35 PM 73.4 °F - 64.4 °F 73% 29.89 in 10.0 mi SSE 9.2 mph 16.1 mph N/A   Overcast